WA8KWD Weather Reports


time (UTC)temp
C
wind
direction
speed
KPH
gust
KPH
rain 1hr
cm
rain 24hr
cm
rain mn
cm
humidity
%
barometer
mb
20260506200001 12 319 6.4 12.9 0.00 3.28 1.85 53 1012.7
20260506194600 12 326 3.2 12.9 0.00 3.28 1.85 53 1012.4
20260506193103 13 322 4.8 19.3 0.00 3.28 1.85 50 1012.8
20260506191548 13 257 3.2 12.9 0.00 3.28 1.85 55 1013.0
20260506190048 12 311 6.4 17.7 0.00 3.28 1.85 54 1012.8
20260506184545 12 27 4.8 11.3 0.00 3.28 1.85 56 1012.8
20260506183036 12 305 8.0 17.7 0.00 3.28 1.85 55 1013.0
20260506181539 12 310 1.6 11.3 0.00 3.28 1.85 60 1012.7
20260506180027 12 309 6.4 12.9 0.00 3.28 1.85 59 1012.5
20260506174522 12 330 6.4 11.3 0.00 3.28 1.85 58 1012.8
20260506173018 11 311 3.2 11.3 0.00 3.28 1.85 54 1012.7
20260506171513 12 285 3.2 12.9 0.00 3.28 1.85 56 1012.8
20260506170007 12 287 3.2 12.9 0.00 3.28 1.85 50 1012.7
20260506164515 12 266 1.6 8.0 0.00 3.28 1.85 10 1012.7
20260506163111 11 323 4.8 9.7 0.00 3.28 1.85 34 1012.7
20260506161555 11 314 4.8 11.3 0.00 3.28 1.85 1 1012.4
20260506160057 10 16 3.2 8.0 0.00 3.28 1.85 1 1012.1
20260506154549 10 335 4.8 11.3 0.03 3.28 1.85 1 1012.3
20260506153042 8 337 4.8 14.5 0.03 3.28 1.85 1 1012.0
20260506151542 8 333 6.4 12.9 0.03 3.28 1.85 1 1012.1
20260506150043 8 318 6.4 12.9 0.03 3.28 1.85 1 1012.0
20260506144532 8 306 4.8 11.3 0.00 3.25 1.83 1 1011.8
20260506143036 7 311 1.6 11.3 0.00 3.25 1.83 1 1011.6
20260506141530 7 319 4.8 16.1 0.00 3.25 1.83 1 1011.3
20260506140020 8 333 4.8 14.5 0.00 3.25 1.83 1 1011.1
20260506134516 7 323 4.8 11.3 0.00 3.25 1.83 1 1011.1
20260506133011 8 316 3.2 8.0 0.00 3.25 1.83 1 1010.8
20260506131510 8 308 1.6 9.7 0.00 3.25 1.83 1 1010.4
20260506130003 7 313 4.8 9.7 0.00 3.25 1.83 1 1010.3
20260506124558 7 328 0.0 4.8 0.00 3.25 1.83 1 1010.5
20260506123055 7 311 1.6 8.0 0.00 3.25 1.83 1 1010.5
20260506121555 7 326 3.2 9.7 0.05 3.25 1.83 1 1009.9
20260506120057 7 23 3.2 6.4 0.05 3.25 1.83 1 1009.7
20260506114540 7 25 1.6 6.4 0.05 3.25 1.83 1 1009.6
20260506113036 7 325 3.2 11.3 0.05 3.25 1.83 1 1009.3
20260506111532 6 311 6.4 12.9 0.00 3.20 1.78 1 1009.8
20260506110030 6 333 4.8 12.9 0.05 3.20 1.78 1 1009.4
20260506104535 6 340 4.8 16.1 0.13 3.20 1.78 1 1008.3
20260506103035 6 326 3.2 17.7 0.23 3.20 1.78 1 1008.0
20260506101514 6 28 1.6 12.9 0.30 3.20 1.78 1 1008.1
20260506100010 6 9 4.8 20.9 0.28 3.15 1.73 1 1008.2
20260506094505 6 330 3.2 12.9 0.20 3.07 1.65 1 1008.7
20260506093001 6 320 3.2 12.9 0.13 2.97 1.55 1 1008.6
20260506091557 7 336 4.8 17.7 0.08 2.87 1.45 1 1008.4
20260506090053 7 324 4.8 14.5 0.15 2.84 1.42 1 1008.4
20260506084615 7 347 4.8 17.7 0.25 2.84 1.42 1 1008.0
20260506083044 7 330 8.0 14.5 0.33 2.84 1.42 1 1007.8
20260506081550 8 333 6.4 12.9 0.36 2.82 1.40 1 1007.8
20260506073025 8 35 3.2 8.0 0.23 2.51 1.09 1 1007.3
20260506071521 8 8 1.6 9.7 0.28 2.46 1.04 1 1007.0
20260506061503 9 352 0.0 8.0 0.30 2.18 0.76 1 1007.8
20260506044538 10 319 3.2 16.1 0.38 1.78 0.36 1 1008.6
20260506043031 10 13 4.8 9.7 0.36 1.70 0.28 1 1008.8
20260506041529 11 341 1.6 8.0 0.23 1.55 0.13 1 1008.5
20260506040027 11 20 1.6 6.4 0.15 1.42 0.00 1 1008.6
20260506034518 12 328 1.6 8.0 0.13 1.37 1.37 1 1008.6
20260506033014 13 359 0.0 8.0 0.13 1.35 1.35 1 1008.7
20260506031513 13 236 0.0 1.6 0.13 1.30 1.30 1 1008.7
20260506030012 13 243 1.6 4.8 0.13 1.27 1.27 1 1008.9
20260506024509 13 243 0.0 4.8 0.15 1.24 1.24 1 1009.0
20260506023004 13 226 0.0 3.2 0.15 1.22 1.22 1 1009.1
20260506021622 13 198 0.0 0.0 0.10 1.17 1.17 1 1009.0
20260506020057 13 188 0.0 0.0 0.10 1.14 1.14 1 1008.7
20260506014553 13 188 0.0 0.0 0.10 1.09 1.09 1 1008.6
20260506013058 13 188 0.0 0.0 0.10 1.07 1.07 1 1008.4
20260506011553 13 198 0.0 0.0 0.10 1.07 1.07 1 1008.4
20260506010040 13 285 0.0 0.0 0.10 1.04 1.04 1 1008.4
20260506004535 13 286 0.0 1.6 0.13 0.99 0.99 1 1008.5
20260506003030 13 276 0.0 0.0 0.58 0.97 0.97 1 1008.4
20260506001526 13 276 0.0 0.0 0.91 0.97 0.97 1 1008.4
20260506000024 13 276 0.0 0.0 0.89 0.94 0.94 1 1008.5
20260505234517 13 309 1.6 27.4 0.81 0.86 0.86 1 1008.7
20260505233012 16 302 12.9 20.9 0.25 0.30 0.30 1 1008.7
20260505231512 17 335 0.0 3.2 0.00 0.05 0.05 21 1007.4
20260505230010 17 248 0.0 0.0 0.00 0.05 0.05 22 1007.5
20260505224604 18 231 0.0 0.0 0.00 0.05 0.05 14 1007.5
20260505223057 17 231 0.0 0.0 0.00 0.05 0.05 26 1007.6
20260505221551 17 231 0.0 0.0 0.00 0.05 0.05 23 1007.7
20260505220051 17 231 0.0 1.6 0.00 0.05 0.05 27 1007.9
20260505214553 17 220 0.0 1.6 0.00 0.05 0.05 22 1007.9
20260505213040 17 230 0.0 0.0 0.00 0.05 0.05 22 1007.9
20260505211535 17 228 0.0 4.8 0.00 0.05 0.05 21 1007.8
20260505210029 17 231 0.0 6.4 0.03 0.05 0.05 18 1007.9
20260505204526 17 243 0.0 6.4 0.05 0.05 0.05 19 1008.0
20260505203028 17 240 0.0 8.0 0.05 0.05 0.05 8 1008.0
20260505201529 17 238 4.8 14.5 0.05 0.05 0.05 19 1008.1